AAL853 KCHS-KCMH

Flight info

Callsign AAL853
Flight time N/A
Altitude 36000
Route MLTRE3 JYMSE BZM MCGNS SCRLT2
Aircraft A320/M-SDE3FGHIRWY/LB1

Departure

Time 2026-04-17 06:49
Airport Charleston International Airport (KCHS)

Arrival

Time N/A
Airport John Glenn Columbus International Airport (KCMH)
Time Latitude Longitude Altitude Speed Heading
2026-04-17 06:23 32.88374 -80.03307 41 ft 0 kts 236°
2026-04-17 06:29 32.88387 -80.03283 39 ft 4 kts 243°
2026-04-17 06:29 32.88396 -80.03254 39 ft 4 kts 267°
2026-04-17 06:30 32.88391 -80.03229 37 ft 3 kts 324°
2026-04-17 06:30 32.88389 -80.03227 37 ft 0 kts 327°
2026-04-17 06:33 32.88396 -80.03232 41 ft 2 kts 327°
2026-04-17 06:33 32.88414 -80.03246 39 ft 5 kts 327°
2026-04-17 06:33 32.88461 -80.03281 41 ft 9 kts 327°
2026-04-17 06:33 32.88520 -80.03325 40 ft 11 kts 328°
2026-04-17 06:34 32.88592 -80.03379 41 ft 13 kts 327°
2026-04-17 06:34 32.88675 -80.03443 41 ft 15 kts 327°
2026-04-17 06:34 32.88730 -80.03555 41 ft 17 kts 287°
2026-04-17 06:34 32.88750 -80.03623 41 ft 0 kts 290°
2026-04-17 06:35 32.88756 -80.03629 41 ft 2 kts 322°
2026-04-17 06:35 32.88780 -80.03634 41 ft 6 kts 354°
2026-04-17 06:35 32.88849 -80.03627 41 ft 11 kts
2026-04-17 06:36 32.88933 -80.03613 41 ft 13 kts
2026-04-17 06:36 32.89031 -80.03599 41 ft 15 kts
2026-04-17 06:36 32.89142 -80.03597 41 ft 17 kts
2026-04-17 06:36 32.89265 -80.03593 41 ft 19 kts
2026-04-17 06:37 32.89405 -80.03588 41 ft 21 kts
2026-04-17 06:37 32.89561 -80.03583 39 ft 24 kts
2026-04-17 06:37 32.89737 -80.03577 39 ft 26 kts
2026-04-17 06:37 32.89907 -80.03568 40 ft 13 kts
2026-04-17 06:38 32.89940 -80.03551 41 ft 0 kts 37°
2026-04-17 06:38 32.89946 -80.03549 40 ft 3 kts 14°
2026-04-17 06:38 32.89976 -80.03541 41 ft 5 kts 15°
2026-04-17 06:39 32.90015 -80.03524 41 ft 7 kts 21°
2026-04-17 06:39 32.90063 -80.03501 41 ft 8 kts 21°
2026-04-17 06:39 32.90115 -80.03527 41 ft 9 kts 299°
2026-04-17 06:39 32.90148 -80.03599 42 ft 11 kts 316°
2026-04-17 06:40 32.90208 -80.03653 43 ft 11 kts 321°
2026-04-17 06:40 32.90289 -80.03705 42 ft 16 kts 321°
2026-04-17 06:40 32.90379 -80.03806 41 ft 19 kts 319°
2026-04-17 06:40 32.90499 -80.03934 39 ft 25 kts 317°
2026-04-17 06:41 32.90633 -80.04077 41 ft 27 kts 318°
2026-04-17 06:41 32.90777 -80.04232 41 ft 28 kts 317°
2026-04-17 06:41 32.90838 -80.04378 41 ft 0 kts 268°
2026-04-17 06:42 32.90835 -80.04416 42 ft 9 kts 261°
2026-04-17 06:42 32.90806 -80.04501 40 ft 13 kts 234°
2026-04-17 06:42 32.90743 -80.04592 40 ft 15 kts 231°
2026-04-17 06:42 32.90726 -80.04672 38 ft 10 kts 334°
2026-04-17 06:43 32.90784 -80.04728 41 ft 12 kts 335°
2026-04-17 06:43 32.90868 -80.04784 41 ft 18 kts 326°
2026-04-17 06:43 32.90987 -80.04874 41 ft 22 kts 327°
2026-04-17 06:43 32.91120 -80.04976 41 ft 24 kts 328°
2026-04-17 06:44 32.91231 -80.05058 41 ft 6 kts 327°
2026-04-17 06:44 32.91229 -80.05056 41 ft 2 kts 327°
2026-04-17 06:44 32.91215 -80.05046 41 ft 2 kts 327°
2026-04-17 06:44 32.91202 -80.05035 41 ft 2 kts 327°
2026-04-17 06:45 32.91188 -80.05025 41 ft 2 kts 327°
2026-04-17 06:45 32.91174 -80.05014 41 ft 2 kts 327°
2026-04-17 06:45 32.91167 -80.05008 41 ft 1 kts 328°
2026-04-17 06:45 32.91183 -80.05001 40 ft 4 kts 40°
2026-04-17 06:46 32.91205 -80.04971 41 ft 6 kts 46°
2026-04-17 06:46 32.91235 -80.04921 39 ft 9 kts 56°
2026-04-17 06:46 32.91237 -80.04864 41 ft 8 kts 137°
2026-04-17 06:46 32.91198 -80.04860 41 ft 5 kts 162°
2026-04-17 06:47 32.91196 -80.04827 41 ft 4 kts 77°
2026-04-17 06:47 32.91200 -80.04803 39 ft 3 kts 77°
2026-04-17 06:47 32.91204 -80.04780 42 ft 3 kts 84°
2026-04-17 06:47 32.91200 -80.04749 42 ft 4 kts 117°
2026-04-17 06:48 32.91177 -80.04718 42 ft 6 kts 132°
2026-04-17 06:48 32.91133 -80.04681 43 ft 9 kts 148°
2026-04-17 06:48 32.90998 -80.04581 42 ft 54 kts 148°
2026-04-17 06:48 32.90491 -80.04197 39 ft 116 kts 148°
2026-04-17 06:49 32.89699 -80.03587 129 ft 148 kts 147°
2026-04-17 06:49 32.88920 -80.02909 647 ft 142 kts 147°
2026-04-17 06:49 32.88010 -80.02121 764 ft 166 kts 145°
2026-04-17 06:49 32.87300 -80.01003 1295 ft 181 kts 105°
2026-04-17 06:50 32.87534 -79.99539 1803 ft 188 kts 51°
2026-04-17 06:50 32.88486 -79.98414 2044 ft 206 kts 36°
2026-04-17 06:50 32.89653 -79.97250 2253 ft 231 kts 35°
2026-04-17 06:50 32.90940 -79.95988 2680 ft 249 kts 35°
2026-04-17 06:51 32.92319 -79.94708 3428 ft 251 kts 26°
2026-04-17 06:51 32.93950 -79.94081 4189 ft 246 kts 357°
2026-04-17 06:51 32.95617 -79.94531 4662 ft 257 kts 330°
2026-04-17 06:51 32.97202 -79.95627 5348 ft 263 kts 323°
2026-04-17 06:52 32.98708 -79.96862 6184 ft 267 kts 321°
2026-04-17 06:52 33.00221 -79.98163 6998 ft 270 kts 321°
2026-04-17 06:52 33.01757 -79.99483 7773 ft 274 kts 321°
2026-04-17 06:52 33.03313 -80.00801 8520 ft 279 kts 322°
2026-04-17 06:53 33.04916 -80.02136 9242 ft 284 kts 322°
2026-04-17 06:53 33.06562 -80.03489 9965 ft 288 kts 322°
2026-04-17 06:53 33.08249 -80.04870 10373 ft 304 kts 322°
2026-04-17 06:53 33.10066 -80.06360 10517 ft 327 kts 322°
2026-04-17 06:54 33.11982 -80.07926 10640 ft 348 kts 323°
2026-04-17 06:54 33.14027 -80.09588 10996 ft 359 kts 323°
2026-04-17 06:54 33.16114 -80.11278 11579 ft 363 kts 323°
2026-04-17 06:54 33.18218 -80.12980 12213 ft 366 kts 323°
2026-04-17 06:55 33.20335 -80.14696 12838 ft 368 kts 322°
2026-04-17 06:55 33.22435 -80.16406 13471 ft 371 kts 322°
2026-04-17 06:55 33.24575 -80.18152 14077 ft 373 kts 322°
2026-04-17 06:55 33.26732 -80.19916 14627 ft 375 kts 322°
2026-04-17 06:56 33.28903 -80.21696 15155 ft 378 kts 321°
2026-04-17 06:56 33.31053 -80.23461 15682 ft 382 kts 321°
2026-04-17 06:56 33.33298 -80.25219 16192 ft 388 kts 326°
2026-04-17 06:56 33.35790 -80.26555 16705 ft 397 kts 334°
2026-04-17 06:57 33.38387 -80.27734 17249 ft 400 kts 334°
2026-04-17 06:57 33.40985 -80.28915 17787 ft 404 kts 334°
2026-04-17 06:57 33.43636 -80.30126 18326 ft 408 kts 334°
2026-04-17 06:57 33.46298 -80.31346 18841 ft 411 kts 334°
2026-04-17 06:58 33.48974 -80.32577 19365 ft 413 kts 333°
2026-04-17 06:58 33.51631 -80.33802 19904 ft 414 kts 333°
2026-04-17 06:58 33.54340 -80.35048 20448 ft 416 kts 333°
2026-04-17 06:58 33.57072 -80.36228 20969 ft 419 kts 335°
2026-04-17 06:59 33.59854 -80.37306 21481 ft 422 kts 336°
2026-04-17 06:59 33.62674 -80.38325 21937 ft 424 kts 337°
2026-04-17 06:59 33.65528 -80.39327 22400 ft 426 kts 337°
2026-04-17 06:59 33.68346 -80.40324 22841 ft 428 kts 336°
2026-04-17 07:00 33.71201 -80.41352 23267 ft 429 kts 336°
2026-04-17 07:00 33.74080 -80.42409 23678 ft 430 kts 335°
2026-04-17 07:00 33.76946 -80.43476 24016 ft 432 kts 335°
2026-04-17 07:00 33.79781 -80.44541 24355 ft 433 kts 335°
2026-04-17 07:01 33.82669 -80.45630 24700 ft 435 kts 335°
2026-04-17 07:01 33.85573 -80.46726 25052 ft 436 kts 335°
2026-04-17 07:01 33.87497 -80.47452 25255 ft 438 kts 335°
2026-04-17 07:01 33.91380 -80.48911 25669 ft 441 kts 335°
2026-04-17 07:02 33.94319 -80.50011 25999 ft 442 kts 335°
2026-04-17 07:02 33.96310 -80.50753 26227 ft 443 kts 335°
2026-04-17 07:02 33.99229 -80.51840 26557 ft 445 kts 335°
2026-04-17 07:02 34.02195 -80.52951 26873 ft 446 kts 335°
2026-04-17 07:03 34.05164 -80.54067 27189 ft 448 kts 335°
2026-04-17 07:03 34.08148 -80.55190 27610 ft 446 kts 335°
2026-04-17 07:03 34.11107 -80.56304 28070 ft 444 kts 334°
2026-04-17 07:03 34.14052 -80.57413 28579 ft 443 kts 334°
2026-04-17 07:04 34.16986 -80.58519 29055 ft 441 kts 333°
2026-04-17 07:04 34.19877 -80.59612 29520 ft 439 kts 333°
2026-04-17 07:04 34.22789 -80.60716 29994 ft 438 kts 333°
2026-04-17 07:04 34.25703 -80.61821 30422 ft 436 kts 333°
2026-04-17 07:05 34.28603 -80.62918 30805 ft 435 kts 333°
2026-04-17 07:05 34.31494 -80.64010 31200 ft 434 kts 333°
2026-04-17 07:05 34.34332 -80.65085 31584 ft 433 kts 333°
2026-04-17 07:05 34.37220 -80.66178 31976 ft 431 kts 333°
2026-04-17 07:06 34.40087 -80.67267 32400 ft 430 kts 332°
2026-04-17 07:06 34.42913 -80.68345 32796 ft 429 kts 332°
2026-04-17 07:06 34.45771 -80.69433 33204 ft 428 kts 332°
2026-04-17 07:06 34.48614 -80.70516 33619 ft 427 kts 332°
2026-04-17 07:07 34.51451 -80.71593 34041 ft 426 kts 332°
2026-04-17 07:07 34.54249 -80.72656 34385 ft 425 kts 332°
2026-04-17 07:07 34.57064 -80.73728 34742 ft 423 kts 332°
2026-04-17 07:07 34.59876 -80.74802 35061 ft 422 kts 332°
2026-04-17 07:08 34.62651 -80.75857 35382 ft 421 kts 333°
2026-04-17 07:08 34.65455 -80.76924 35758 ft 420 kts 332°
2026-04-17 07:08 34.68246 -80.77991 36001 ft 420 kts 332°
2026-04-17 07:09 34.73873 -80.80153 36065 ft 427 kts 332°
2026-04-17 07:09 34.79512 -80.82319 36063 ft 429 kts 332°
2026-04-17 07:10 34.85228 -80.84508 36059 ft 429 kts 332°
2026-04-17 07:10 34.90934 -80.86697 36089 ft 430 kts 332°
2026-04-17 07:11 34.96611 -80.88880 36045 ft 430 kts 332°
2026-04-17 07:11 35.02345 -80.91094 36059 ft 431 kts 332°
2026-04-17 07:12 35.08078 -80.93306 36069 ft 431 kts 332°
2026-04-17 07:12 35.13780 -80.95503 36075 ft 431 kts 332°
2026-04-17 07:13 35.19485 -80.97705 36073 ft 430 kts 333°
2026-04-17 07:13 35.25204 -80.99919 36063 ft 430 kts 333°